CW9825 Weather Reports


time (UTC)temp
C
wind
direction
speed
KPH
gust
KPH
rain 1hr
cm
rain 24hr
cm
rain mn
cm
humidity
%
barometer
mb
20260506153546 3 267 4.8 19.3 0.00 0.00 0.00 57 1017.1
20260506153051 3 308 8.0 20.9 0.00 0.00 0.00 57 1017.1
20260506152547 3 246 11.3 20.9 0.00 0.00 0.00 57 1017.1
20260506152047 3 278 11.3 20.9 0.00 0.00 0.00 57 1017.2
20260506151549 3 5 8.0 22.5 0.00 0.00 0.00 57 1017.2
20260506151046 3 273 4.8 16.1 0.00 0.00 0.00 58 1017.2
20260506150548 3 283 4.8 20.9 0.00 0.00 0.00 57 1017.2
20260506150046 3 274 6.4 20.9 0.00 0.00 0.00 58 1017.2
20260506145546 3 268 9.7 16.1 0.00 0.00 0.00 58 1017.2
20260506145046 3 273 4.8 27.4 0.00 0.00 0.00 57 1017.2
20260506144546 3 285 9.7 27.4 0.00 0.00 0.00 57 1017.2
20260506144045 3 269 8.0 20.9 0.00 0.00 0.00 58 1017.2
20260506143545 3 269 8.0 24.1 0.00 0.00 0.00 57 1017.2
20260506143045 4 266 11.3 24.1 0.00 0.00 0.00 57 1017.2
20260506142544 4 294 6.4 17.7 0.00 0.00 0.00 58 1017.2
20260506142042 3 274 11.3 19.3 0.00 0.00 0.00 61 1017.2
20260506141541 3 321 8.0 19.3 0.00 0.00 0.00 60 1017.2
20260506141040 3 321 6.4 19.3 0.00 0.00 0.00 62 1017.2
20260506140542 3 346 6.4 19.3 0.00 0.00 0.00 61 1017.3
20260506140039 3 294 4.8 16.1 0.00 0.00 0.00 62 1017.3
20260506135537 3 335 8.0 19.3 0.00 0.00 0.00 62 1017.3
20260506135036 3 323 11.3 19.3 0.00 0.00 0.00 63 1017.3
20260506134535 2 280 4.8 14.5 0.00 0.00 0.00 63 1017.3
20260506134033 2 272 4.8 14.5 0.00 0.00 0.00 63 1017.3
20260506133532 2 288 4.8 14.5 0.00 0.00 0.00 63 1017.3
20260506133031 2 333 4.8 12.9 0.00 0.00 0.00 65 1017.3
20260506132533 2 310 3.2 12.9 0.00 0.00 0.00 65 1017.3
20260506132034 2 273 3.2 11.3 0.00 0.00 0.00 65 1017.3
20260506131537 2 289 3.2 12.9 0.00 0.00 0.00 65 1017.2
20260506131029 2 270 3.2 12.9 0.00 0.00 0.00 65 1017.2
20260506130527 2 297 4.8 12.9 0.00 0.00 0.00 65 1017.2
20260506130025 2 266 3.2 12.9 0.00 0.00 0.00 65 1017.2
20260506125530 2 330 4.8 16.1 0.00 0.00 0.00 65 1017.2
20260506125026 2 327 1.6 16.1 0.00 0.00 0.00 65 1017.2
20260506124523 2 306 4.8 16.1 0.00 0.00 0.00 66 1017.1
20260506124022 1 301 3.2 8.0 0.00 0.00 0.00 66 1017.1
20260506123520 1 309 3.2 6.4 0.00 0.00 0.00 66 1017.1
20260506123019 1 309 1.6 6.4 0.00 0.00 0.00 66 1017.1
20260506122519 1 317 1.6 6.4 0.00 0.00 0.00 66 1017.1
20260506122018 1 302 3.2 12.9 0.00 0.00 0.00 66 1017.0
20260506121517 1 296 1.6 8.0 0.00 0.00 0.00 66 1016.9
20260506121016 1 300 3.2 6.4 0.00 0.00 0.00 66 1016.9
20260506120515 1 296 1.6 6.4 0.00 0.00 0.00 65 1016.8
20260506120018 1 288 1.6 6.4 0.00 0.00 0.00 65 1016.7
20260506115518 1 284 1.6 6.4 0.00 0.00 0.00 65 1016.7
20260506115013 1 296 1.6 6.4 0.00 0.00 0.00 65 1016.6
20260506114513 1 308 1.6 4.8 0.00 0.00 0.00 65 1016.5
20260506114012 1 310 0.0 4.8 0.00 0.00 0.00 64 1016.6
20260506113511 1 310 1.6 6.4 0.00 0.00 0.00 64 1016.6
20260506113010 1 311 1.6 8.0 0.00 0.00 0.00 64 1016.6
20260506112510 1 315 3.2 8.0 0.00 0.00 0.00 63 1016.5
20260506112009 1 329 3.2 9.7 0.00 0.00 0.00 63 1016.4
20260506111509 1 327 3.2 9.7 0.00 0.00 0.00 63 1016.5
20260506111009 1 338 3.2 12.9 0.00 0.00 0.00 64 1016.4
20260506110510 1 327 4.8 14.5 0.00 0.00 0.00 64 1016.3
20260506110008 1 325 8.0 14.5 0.00 0.00 0.00 64 1016.3
20260506105507 1 340 8.0 16.1 0.00 0.00 0.00 64 1016.3
20260506105009 1 330 9.7 16.1 0.00 0.00 0.00 64 1016.2
20260506104506 1 333 6.4 19.3 0.00 0.00 0.00 65 1016.2
20260506104005 1 338 8.0 19.3 0.00 0.00 0.00 65 1016.2
20260506103505 1 320 4.8 12.9 0.00 0.00 0.00 66 1016.2
20260506103004 1 334 4.8 12.9 0.00 0.00 0.00 66 1016.2
20260506102503 1 304 1.6 12.9 0.00 0.00 0.00 66 1016.2
20260506102002 1 292 4.8 9.7 0.00 0.00 0.00 66 1016.2
20260506101506 1 329 4.8 9.7 0.00 0.00 0.00 66 1016.2
20260506101002 1 37 3.2 11.3 0.00 0.00 0.00 66 1016.1
20260506100502 1 318 3.2 17.7 0.00 0.00 0.00 66 1016.2
20260506100001 1 355 8.0 17.7 0.00 0.00 0.00 65 1016.1
20260506095603 1 320 8.0 17.7 0.00 0.00 0.00 65 1016.2
20260506095103 1 327 8.0 16.1 0.00 0.00 0.00 65 1016.2
20260506094559 1 307 4.8 12.9 0.00 0.00 0.00 65 1016.1
20260506094058 1 322 6.4 16.1 0.00 0.00 0.00 65 1016.1
20260506093557 1 331 8.0 16.1 0.00 0.00 0.00 65 1016.1
20260506093057 1 321 9.7 16.1 0.00 0.00 0.00 65 1016.1
20260506092556 1 321 4.8 9.7 0.00 0.00 0.00 65 1016.1
20260506092056 1 335 3.2 9.7 0.00 0.00 0.00 65 1016.1
20260506091555 1 327 3.2 8.0 0.00 0.00 0.00 65 1016.0
20260506091055 1 340 3.2 9.7 0.00 0.00 0.00 65 1016.0
20260506090555 1 338 4.8 9.7 0.00 0.00 0.00 65 1016.1
20260506090055 1 325 4.8 8.0 0.00 0.00 0.00 65 1016.0
20260506085554 1 326 4.8 9.7 0.00 0.00 0.00 65 1016.0
20260506085054 1 329 4.8 9.7 0.00 0.00 0.00 65 1015.9
20260506084620 1 327 6.4 9.7 0.00 0.00 0.00 65 1016.0
20260506084054 1 321 4.8 11.3 0.00 0.00 0.00 65 1016.0
20260506083553 1 340 3.2 9.7 0.00 0.00 0.00 65 1015.9
20260506083054 1 355 3.2 9.7 0.00 0.00 0.00 65 1015.8
20260506082553 1 355 4.8 9.7 0.00 0.00 0.00 65 1015.8
20260506082051 1 337 6.4 9.7 0.00 0.00 0.00 65 1015.9
20260506081555 1 338 3.2 9.7 0.00 0.00 0.00 65 1015.8
20260506081052 1 323 4.8 9.7 0.00 0.00 0.00 65 1015.9
20260506080553 1 344 1.6 14.5 0.00 0.00 0.00 65 1015.9
20260506073048 1 360 6.4 14.5 0.00 0.00 0.00 64 1015.7
20260506072546 1 355 4.8 12.9 0.00 0.00 0.00 64 1015.8
20260506072046 2 331 6.4 12.9 0.00 0.00 0.00 64 1015.8
20260506071545 2 333 4.8 12.9 0.00 0.00 0.00 64 1015.7
20260506071045 2 326 4.8 14.5 0.00 0.00 0.00 64 1015.8
20260506070545 2 5 4.8 14.5 0.00 0.00 0.00 64 1015.8
20260506062039 2 5 3.2 12.9 0.00 0.00 0.00 64 1015.7
20260506061539 2 37 6.4 14.5 0.00 0.00 0.00 64 1015.7
20260506061038 2 29 3.2 14.5 0.00 0.00 0.00 64 1015.6
20260506060537 2 360 4.8 16.1 0.00 0.00 0.00 64 1015.6
20260506051029 2 13 6.4 17.7 0.00 0.00 0.00 63 1015.4
20260506050528 2 338 9.7 19.3 0.00 0.00 0.00 63 1015.4
20260506045027 3 324 4.8 19.3 0.00 0.00 0.00 61 1015.3
20260506044552 3 355 8.0 19.3 0.00 0.00 0.00 61 1015.2
20260506044026 3 317 11.3 19.3 0.00 0.00 0.00 61 1015.2
20260506043526 3 355 3.2 19.3 0.00 0.00 0.00 61 1015.2
20260506043025 3 350 8.0 20.9 0.00 0.00 0.00 60 1015.1
20260506042525 3 321 12.9 20.9 0.00 0.00 0.00 60 1015.2
20260506042025 3 347 12.9 19.3 0.00 0.00 0.00 60 1015.1
20260506041525 3 346 9.7 19.3 0.00 0.00 0.00 60 1015.1
20260506041030 3 306 8.0 20.9 0.00 0.00 0.00 60 1015.0
20260506040524 3 10 11.3 20.9 0.00 0.00 0.00 59 1015.1
20260506040028 3 329 9.7 22.5 0.00 0.00 0.00 59 1015.1
20260506035526 3 338 8.0 20.9 0.00 0.00 0.00 59 1015.1
20260506035024 3 300 8.0 19.3 0.00 0.00 0.00 59 1015.0
20260506034544 3 12 9.7 20.9 0.00 0.00 0.00 59 1015.0
20260506034024 3 350 12.9 20.9 0.00 0.00 0.00 59 1015.0
20260506033522 3 355 9.7 19.3 0.00 0.00 0.00 59 1015.0
20260506033022 3 287 8.0 20.9 0.00 0.00 0.00 59 1015.1
20260506032522 3 355 12.9 25.7 0.00 0.00 0.00 59 1015.0
20260506032024 3 331 9.7 25.7 0.00 0.00 0.00 59 1015.1
20260506031522 3 303 11.3 25.7 0.00 0.00 0.00 58 1015.0
20260506031022 3 304 11.3 25.7 0.00 0.00 0.00 58 1015.0
20260506030522 3 344 11.3 24.1 0.00 0.00 0.00 58 1015.0
20260506030021 3 329 14.5 24.1 0.00 0.00 0.00 57 1015.0
20260506025522 3 324 12.9 25.7 0.00 0.00 0.00 57 1014.9
20260506025022 3 321 12.9 25.7 0.00 0.00 0.00 57 1014.9
20260506024520 3 351 12.9 24.1 0.00 0.00 0.00 57 1014.9
20260506024020 3 293 12.9 20.9 0.00 0.00 0.00 56 1014.9
20260506023519 3 325 12.9 20.9 0.00 0.00 0.00 56 1014.8
20260506023018 4 337 11.3 20.9 0.00 0.00 0.00 56 1014.7
20260506022518 4 324 14.5 24.1 0.00 0.00 0.00 56 1014.6
20260506022016 4 330 9.7 24.1 0.00 0.00 0.00 56 1014.5
20260506021516 4 324 11.3 22.5 0.00 0.00 0.00 56 1014.5
20260506021016 4 360 11.3 22.5 0.00 0.00 0.00 55 1014.5
20260506020514 4 338 8.0 22.5 0.00 0.00 0.00 56 1014.4
20260506020014 4 326 4.8 27.4 0.00 0.00 0.00 55 1014.2
20260506015513 4 24 11.3 20.9 0.00 0.00 0.00 55 1014.1
20260506015012 4 333 8.0 19.3 0.00 0.00 0.00 55 1014.1
20260506014512 4 343 8.0 22.5 0.00 0.00 0.00 55 1014.1
20260506014011 4 335 12.9 22.5 0.00 0.00 0.00 54 1014.0
20260506013511 4 343 14.5 22.5 0.00 0.00 0.00 54 1014.0
20260506013010 4 340 9.7 22.5 0.00 0.00 0.00 54 1013.9
20260506012510 5 338 11.3 22.5 0.00 0.00 0.00 54 1013.9
20260506012008 5 308 14.5 24.1 0.00 0.00 0.00 54 1013.9
20260506011513 5 330 14.5 24.1 0.00 0.00 0.00 53 1013.7
20260506011012 5 316 11.3 29.0 0.00 0.00 0.00 54 1013.7
20260506010508 5 307 14.5 29.0 0.00 0.00 0.00 53 1013.6
20260506010010 5 345 9.7 19.3 0.00 0.00 0.00 53 1013.6
20260506005508 5 340 11.3 27.4 0.00 0.00 0.00 53 1013.6
20260506005007 5 269 17.7 27.4 0.00 0.00 0.00 53 1013.5
20260506004513 5 329 16.1 24.1 0.00 0.00 0.00 53 1013.5
20260506004007 5 275 12.9 24.1 0.00 0.00 0.00 53 1013.6
20260506003506 5 327 17.7 24.1 0.00 0.00 0.00 52 1013.5
20260506003008 5 321 11.3 24.1 0.00 0.00 0.00 53 1013.5
20260506002508 5 319 14.5 24.1 0.00 0.00 0.00 52 1013.5
20260506002006 5 306 9.7 24.1 0.00 0.00 0.00 52 1013.5
20260506001506 5 327 9.7 25.7 0.00 0.00 0.00 51 1013.6
20260506001006 5 294 14.5 25.7 0.00 0.00 0.00 51 1013.5
20260506000507 5 321 8.0 20.9 0.00 0.00 0.00 52 1013.4
20260506000105 5 326 8.0 20.9 0.00 0.00 0.00 52 1013.5
20260505235505 5 280 11.3 25.7 0.00 0.00 0.00 51 1013.5
20260505235004 5 347 14.5 25.7 0.00 0.00 0.00 51 1013.4
20260505234508 5 336 12.9 24.1 0.00 0.00 0.00 51 1013.4
20260505234004 5 273 12.9 24.1 0.00 0.00 0.00 51 1013.4
20260505233503 5 287 9.7 22.5 0.00 0.00 0.00 51 1013.5
20260505233007 5 319 6.4 22.5 0.00 0.00 0.00 51 1013.3
20260505232502 5 341 12.9 30.6 0.00 0.00 0.00 51 1013.4
20260505232002 5 320 17.7 30.6 0.00 0.00 0.00 51 1013.5
20260505231506 5 360 12.9 24.1 0.00 0.00 0.00 51 1013.5
20260505231001 5 268 9.7 22.5 0.00 0.00 0.00 51 1013.4
20260505230501 5 302 11.3 29.0 0.00 0.00 0.00 51 1013.4
20260505230002 5 301 8.0 29.0 0.00 0.00 0.00 51 1013.3
20260505225502 6 334 11.3 25.7 0.00 0.00 0.00 52 1013.2
20260505225001 5 355 6.4 19.3 0.00 0.00 0.00 52 1013.2
20260505224601 5 348 9.7 22.5 0.00 0.00 0.00 52 1013.2
20260505224100 6 283 8.0 25.7 0.00 0.00 0.00 51 1013.1
20260505223559 6 319 16.1 25.7 0.00 0.00 0.00 50 1013.2
20260505223059 6 329 11.3 25.7 0.00 0.00 0.00 51 1013.1
20260505222559 6 284 14.5 25.7 0.00 0.00 0.00 50 1013.1
20260505222059 6 303 17.7 27.4 0.00 0.00 0.00 52 1013.1
20260505221601 6 344 17.7 27.4 0.00 0.00 0.00 51 1013.1
20260505221058 5 333 16.1 27.4 0.00 0.00 0.00 51 1013.1
20260505220558 5 325 17.7 27.4 0.00 0.00 0.00 51 1013.1
20260505220105 5 326 12.9 25.7 0.00 0.00 0.00 51 1013.0
20260505215558 6 276 11.3 25.7 0.00 0.00 0.00 51 1013.1
20260505215058 6 317 14.5 27.4 0.00 0.00 0.00 51 1013.1
20260505214605 6 331 9.7 27.4 0.00 0.00 0.00 51 1013.1
20260505214058 6 326 12.9 22.5 0.00 0.00 0.00 51 1013.1
20260505213556 6 350 6.4 22.5 0.00 0.00 0.00 51 1013.1
20260505213103 6 328 9.7 27.4 0.00 0.00 0.00 52 1013.1
20260505212557 5 288 11.3 29.0 0.00 0.00 0.00 51 1013.0
20260505212056 6 336 17.7 32.2 0.00 0.00 0.00 51 1013.0
20260505211602 6 338 17.7 32.2 0.00 0.00 0.00 50 1013.1
20260505211100 6 328 14.5 24.1 0.00 0.00 0.00 51 1013.0
20260505210556 6 309 12.9 33.8 0.00 0.00 0.00 51 1013.0
20260505210056 6 302 16.1 35.4 0.00 0.00 0.00 50 1013.0
20260505205556 6 329 14.5 35.4 0.00 0.00 0.00 51 1013.0
20260505205056 6 330 17.7 29.0 0.00 0.00 0.00 50 1012.9
20260505204600 6 324 14.5 32.2 0.00 0.00 0.00 51 1012.9
20260505204056 6 322 20.9 32.2 0.00 0.00 0.00 50 1013.0
20260505203556 6 340 16.1 29.0 0.00 0.00 0.00 51 1012.9
20260505203056 6 309 12.9 27.4 0.00 0.00 0.00 50 1012.9
20260505202553 6 333 9.7 25.7 0.00 0.00 0.00 52 1012.9
20260505202053 6 343 17.7 25.7 0.00 0.00 0.00 51 1013.0
20260505201553 6 344 9.7 30.6 0.00 0.00 0.00 52 1013.0
20260505201052 6 286 14.5 30.6 0.00 0.00 0.00 51 1013.1
20260505200551 6 292 6.4 38.6 0.00 0.00 0.00 52 1013.1
20260505200050 5 312 17.7 38.6 0.00 0.00 0.00 53 1013.1
20260505195550 5 337 12.9 27.4 0.00 0.00 0.00 53 1013.1
20260505195049 5 323 12.9 25.7 0.00 0.00 0.00 54 1013.1
20260505194550 5 320 11.3 27.4 0.00 0.00 0.00 53 1013.2
20260505194049 5 315 17.7 27.4 0.00 0.00 0.00 53 1013.1
20260505193548 5 299 11.3 24.1 0.00 0.00 0.00 53 1013.1
20260505193052 5 344 9.7 25.7 0.00 0.00 0.00 53 1013.0
20260505192548 5 265 8.0 33.8 0.00 0.00 0.00 53 1013.1
20260505192048 5 298 14.5 33.8 0.00 0.00 0.00 54 1013.0
20260505191556 5 343 14.5 27.4 0.00 0.00 0.00 55 1013.0
20260505191048 5 316 16.1 27.4 0.00 0.00 0.00 55 1013.1
20260505190550 4 319 8.0 25.7 0.00 0.00 0.00 55 1013.1
20260505190047 5 360 12.9 27.4 0.00 0.00 0.00 56 1013.1
20260505185547 5 271 9.7 27.4 0.00 0.00 0.00 54 1013.1
20260505185047 5 344 11.3 27.4 0.00 0.00 0.00 54 1013.1
20260505184547 5 351 12.9 25.7 0.00 0.00 0.00 54 1013.1
20260505184047 5 317 12.9 29.0 0.00 0.00 0.00 54 1013.1
20260505183548 4 314 16.1 29.0 0.00 0.00 0.00 53 1013.0
20260505183047 5 343 11.3 25.7 0.00 0.00 0.00 53 1013.0
20260505182545 5 342 11.3 27.4 0.00 0.00 0.00 54 1013.0
20260505182049 5 273 11.3 30.6 0.00 0.00 0.00 54 1013.0
20260505181545 4 267 14.5 33.8 0.00 0.00 0.00 54 1012.9
20260505181045 4 292 16.1 33.8 0.00 0.00 0.00 54 1012.9
20260505180544 4 307 14.5 32.2 0.00 0.00 0.00 55 1012.9
20260505180052 4 355 16.1 32.2 0.00 0.00 0.00 54 1012.8
20260505175544 4 315 19.3 33.8 0.00 0.00 0.00 54 1012.8
20260505175047 4 321 16.1 33.8 0.00 0.00 0.00 54 1012.8
20260505174605 5 296 14.5 32.2 0.00 0.00 0.00 54 1012.8
20260505174044 5 281 19.3 37.0 0.00 0.00 0.00 54 1012.7
20260505173543 5 298 19.3 37.0 0.00 0.00 0.00 53 1012.5
20260505173044 5 177 17.7 33.8 0.00 0.00 0.00 53 1012.5
20260505172541 5 301 12.9 33.8 0.00 0.00 0.00 53 1012.4
20260505172042 4 9 16.1 33.8 0.00 0.00 0.00 54 1012.4
20260505171541 5 223 12.9 35.4 0.00 0.00 0.00 54 1012.2
20260505171041 5 17 9.7 35.4 0.00 0.00 0.00 53 1012.4
20260505170539 5 313 14.5 33.8 0.00 0.00 0.00 54 1012.3
20260505170048 5 337 17.7 35.4 0.00 0.00 0.00 55 1012.2
20260505165537 5 292 12.9 35.4 0.00 0.00 0.00 55 1012.2
20260505165037 5 319 17.7 27.4 0.00 0.00 0.00 56 1012.3
20260505164539 4 333 11.3 30.6 0.00 0.00 0.00 56 1012.3
20260505164039 4 291 20.9 30.6 0.00 0.00 0.00 56 1012.5
20260505163535 4 312 12.9 30.6 0.00 0.00 0.00 57 1012.4
20260505163039 5 321 16.1 30.6 0.00 0.00 0.00 57 1012.4
20260505162534 4 330 12.9 29.0 0.00 0.00 0.00 57 1012.3
20260505162034 4 331 12.9 32.2 0.00 0.00 0.00 56 1012.4
20260505161533 4 321 12.9 35.4 0.00 0.00 0.00 57 1012.3
20260505161035 4 261 16.1 35.4 0.00 0.00 0.00 57 1012.3
20260505160533 4 300 16.1 32.2 0.00 0.00 0.00 56 1012.2